Regional Weather Roundup
Issued by NWS

Home | Current Version | Previous Version | Graphics & Text | Print | Product List | Glossary On
Versions: 1 2 3 4 5 6 7 8 9 10 11 12 13 14 15 16 17 18 19 20 21 22 23 24 25 26 27 28 29 30 31 32 33 34 35 36 37 38 39 40 41 42 43 44 45 46 47 48 49 50
000
ASUS43 KIND 180509
RWRIN

WEATHER ROUNDUP FOR INDIANA
NATIONAL WEATHER SERVICE INDIANAPOLIS IN
1200 AM EST SAT NOV 18 2017

NOTE: "FAIR" INDICATES FEW OR NO CLOUDS BELOW 12,000 FEET WITH NO
SIGNIFICANT WEATHER AND/OR OBSTRUCTIONS TO VISIBILITY.

* - STATION DOES NOT REPORT WEATHER SUCH AS PRECIPITATION OR FOG.

+ - STATION NOT QUALITY CONTROLLED BY THE NATIONAL WEATHER SERVICE.
    USE DATA WITH CAUTION...ESPECIALLY DEWPOINT AND RELATIVE
    HUMIDITY OBSERVATIONS.

INZ001>003-010>013-019-020-180600-
NORTHWEST INDIANA

CITY           SKY/WX    TMP DP  RH WIND       PRES   REMARKS
GARY /AIRPORT/ CLOUDY    49  44  82 S7        29.59F
KNOX *+        CLOUDY    43  41  93 S8        29.61F
LA PORTE +     DRIZZLE   42  40  96 S7        29.61F
MICHIGAN CITY+ LGT RAIN  43  43 100 S7        29.60F
MONTICELLO +   CLOUDY    46  40  82 S8        29.61F
RENSSELAER +   CLOUDY    46  39  76 S15       29.60F
VALPARAISO     CLOUDY    46  43  89 SE5       29.61F

$$

LMZ046-743>745-180600-
SOUTHERN LAKE MICHIGAN

STATION/POSITION TIME  TEMP    WIND        PRES    WAVE
                       AIR SEA DIR/SP/G            HT
                 (UTC) (F)     (DEG/KT/KT) (MB)    (FT)
BURNS HARBOR     0440   45     180/ 13/ 20 1002.7F
MICHIGAN CITY    0440   42     160/ 11/ 14   N/A

$$

INZ004-005-014>016-021>024-180600-
NORTH CENTRAL INDIANA

CITY           SKY/WX    TMP DP  RH WIND       PRES   REMARKS
GOSHEN         CLOUDY    43  38  82 S7        29.64F
LOGANSPORT +   CLOUDY    45  41  87 S12       29.64F
ROCHESTER +    CLOUDY    46  43  87 S8G20     29.63F
SOUTH BEND     LGT RAIN  42  42 100 S12G20    29.62F
WARSAW +       CLOUDY    43  41  93 S5        29.64F

$$

INZ006>009-017-018-025>027-180600-
NORTHEAST INDIANA

CITY           SKY/WX    TMP DP  RH WIND       PRES   REMARKS
AUBURN +       HVY RAIN  41  39  93 S5        29.67F
FORT WAYNE     LGT RAIN  45  42  89 S16       29.66F
HUNTINGTON +   CLOUDY    44  42  94 S14G21    29.65F
KENDALLVILLE + DRIZZLE   41  40  96 S9        29.65F

$$

INZ028-029-035-036-043>045-051>053-180600-
WEST CENTRAL INDIANA

CITY           SKY/WX    TMP DP  RH WIND       PRES   REMARKS
CRAWFORDSVL +  CLOUDY    48  41  76 S16G23    29.64F
GREENCASTLE +  CLOUDY    50  39  66 S8        29.66F
LAFAYETTE      CLOUDY    49  42  77 S6        29.63F
TERRE HAUTE    CLOUDY    55  40  56 S14G21    29.68F

$$

INZ030>032-037>040-046>048-054>057-064-065-180600-
CENTRAL INDIANA

CITY           SKY/WX    TMP DP  RH WIND       PRES   REMARKS
CP ATTERBURY + CLOUDY    48  41  76 S9        29.71F
FISHERS *+     CLOUDY    46  43  87 S10G16    29.68F
FRANKFORT +    CLOUDY    49  43  80 S14       29.65F
GREENWOOD *+   CLOUDY    51  43  75 S8        29.69F
INDIANAPOLIS   LGT RAIN  49  42  77 S10       29.68F
-EAGLE CREEK   CLOUDY    49  41  74 S7        29.67F
KOKOMO +       CLOUDY    47  41  80 S20G28    29.65F
MARION +       CLOUDY    46  41  85 S18G24    29.66F
MT COMFORT *+  CLOUDY    46  45  93 S14G20    29.69F
SHELBYVILLE    CLOUDY    50  40  68 S17G24    29.69F
ZIONSVILLE +   CLOUDY    46  41  81 S16G23    29.67F

$$

INZ033-034-041-042-049-050-058-059-180600-
EAST CENTRAL INDIANA

CITY           SKY/WX    TMP DP  RH WIND       PRES   REMARKS
MUNCIE         CLOUDY    48  41  76 S17G26    29.67F
RICHMOND +     CLOUDY    43  37  81 S18G24    29.73F

$$

INZ060-061-067>069-081>083-085>088-180600-
SOUTHWEST INDIANA

CITY           SKY/WX    TMP DP  RH WIND       PRES   REMARKS
EVANSVILLE     CLOUDY    59  41  51 S14G20    29.73F
HUNTINGBURG +  CLOUDY    59  42  53 S17       29.74F
WASHINGTON +   CLOUDY    56  39  53 S17G23    29.70F

$$

INZ062-063-066-070>080-084-089>092-180600-
SOUTH CENTRAL AND SOUTHEAST INDIANA

CITY           SKY/WX    TMP DP  RH WIND       PRES   REMARKS
BEDFORD +      CLOUDY    54  39  58 S8        29.71F
BLOOMINGTON    CLOUDY    55  40  56 S14       29.70F
MADISON *+     CLOUDY    54  36  50 S13       29.78F
NORTH VERNON + CLOUDY    48  41  76 S13       29.74F
SEYMOUR +      CLOUDY    50  41  71 S10       29.74F

$$





USA.gov is the U.S. government's official web portal to all federal, state and local government web resources and services.